DELTA 1 DEB, 21934

Orbit data source: Space-Track

DELTA 1 DEB, 21934 is space debris in SSO originally from a launch on Thu, 12 Jun 1975 UTC launched from the Air Force Western Test Range (AFWTR). Debris objects in space refer to the collection of defunct objects orbiting the Earth. Examples of debris include non-operational satellites, rocket bodies, and fragments generated from explosions, collisions, or faulty payload assembly.

Loading next visibility...
Identifier
21934, 1975-052JU
Orbit
SSO
Country
Flag of USUS
Related business
Manufacturer
Unknown
Mission
Spacecraft
Bus & Motor
Unknown
Mass
Unknown
Launch date (UTC)
1975-06-12 (51 years ago)
Launch vehicle
Unknown
Launch site
Air Force Western Test Range (AFWTR)
Object type
Payload
Rocket body
Debris
Shape & HBR
Unknown shape, 0.1 m
Radar Cross Section
Small (<0.1 m²)

Expand to show TLE details & history
Last TLE update: 2 days ago

TLE from 2 days ago
0 DELTA 1 DEB
1 21934U 75052JU  26032.65741870  .00000259  00000-0  89736-3 0  9991
2 21934  99.6895 296.6524 0293580 316.5938  74.2296 12.93085888626021
Epoch: 2026-02-01T15:46Z
TLE epoch observation values (Epoch: 2026-02-01T15:46:40.975Z)
Latitude
33.60266°
Longitude
-78.36367°
Altitude
1,238.534 km
Speed
7.264 km/s
True Right ascension
19h 20m 41s
True Declination
33° 27' 16"
Sunlit
Object was in daylight at epoch
Visualization orbit readout
Latitude
Unknown
Longitude
Unknown
Altitude
Unknown
Speed
Unknown
Apparent Right ascension
Unknown
Apparent Declination
Unknown
Sunlit
N/A
Visualization observer readout
Local Sidereal Time
05:01:23
Azimuth
Unknown
Elevation
Unknown
Doppler factor
Unknown
Orbital elements
Apogee altitude
1,511.698 km
Perigee altitude
1,061.651 km
Semi-major axis
7,664.812 km
Eccentricity
0.02936
Inclination
99.6895°
RAAN
296.6524°
Arg. of periapsis
316.5938°
True anomaly
77.49797°
Mean anomaly
74.2296°
Eccentric anomaly
75.86073°
Mean motion
3.23438 °/min
Orbital period
111.3 mins
BSTAR
0.00089736
Loading maneuver chart data...
Computing Atmospheric mass density...
Loading historical data...
Loading historical data...
Loading historical data...
Loading historical data...
Loading historical data...
Loading historical data...
Loading historical data...

Documentation

Showing up to 5 results
|